This is the latest recevied weather packets stored in our database for station/object KE6YLF. If no packets are shown the sender has not sent any weather packets the latest 10 day(s).
| Time | Temp. | Humidity | Pressure | Rain* | Wind** | Luminosity | Snow |
|---|---|---|---|---|---|---|---|
| 1778344266 | 33.89° C | 15% | 1075.4 hPa | 0 mm | - | - | - |
| 1778343964 | 33.33° C | 16% | 1075.2 hPa | 0 mm | - | - | - |
| 1778343660 | 35° C | 15% | 1075.4 hPa | 0 mm | - | - | - |
| 1778343356 | 32.78° C | 16% | 1075.6 hPa | 0 mm | - | - | - |
| 1778343050 | 33.33° C | 16% | 1075.4 hPa | 0 mm | - | - | - |
| 1778342747 | 33.33° C | 16% | 1075.4 hPa | 0 mm | - | - | - |
| 1778342442 | 32.78° C | 16% | 1075.3 hPa | 0 mm | - | - | - |
| 1778342138 | 32.78° C | 16% | 1075.5 hPa | 0 mm | - | - | - |
| 1778341835 | 34.44° C | 15% | 1075.3 hPa | 0 mm | - | - | - |
| 1778341531 | 33.89° C | 16% | 1075.3 hPa | 0 mm | - | - | - |
| 1778341229 | 33.33° C | 16% | 1075.4 hPa | 0 mm | - | - | - |
| 1778340926 | 32.22° C | 16% | 1075.3 hPa | 0 mm | - | - | - |
| 1778340622 | 33.33° C | 16% | 1075.3 hPa | 0 mm | - | - | - |
| 1778340318 | 31.11° C | 17% | 1075.4 hPa | 0 mm | - | - | - |
| 1778340015 | 32.22° C | 17% | 1075.4 hPa | 0 mm | - | - | - |
| 1778339712 | 31.11° C | 18% | 1075.2 hPa | 0 mm | - | - | - |
| 1778339410 | 31.67° C | 18% | 1075.3 hPa | 0 mm | - | - | - |
| 1778339107 | 30.56° C | 19% | 1075.2 hPa | 0 mm | - | - | - |
| 1778338805 | 31.11° C | 19% | 1075.3 hPa | 0 mm | - | - | - |
| 1778338500 | 30° C | 20% | 1075.3 hPa | 0 mm | - | - | - |
| 1778338195 | 29.44° C | 20% | 1075.2 hPa | 0 mm | - | - | - |
| 1778337893 | 28.89° C | 20% | 1075.3 hPa | 0 mm | - | - | - |
| 1778337590 | 29.44° C | 19% | 1075.2 hPa | 0 mm | - | - | - |
| 1778337287 | 30° C | 18% | 1075.2 hPa | 0 mm | - | - | - |
| 1778336983 | 28.89° C | 19% | 1075.1 hPa | 0 mm | - | - | - |
* Rain latest hour (hover to see other rain measurements)
** Current wind speed in m/s (hover to see current wind gust speed)